Weather in Min-Kush

Kyrgyzstan     41°40′39″N   74°27′42″E
temp.,
°C
wind,
m/s
gust,
m/s
humid.,
%
clouds,
%
prec.,
mm/h
press.,
hPa
HPBL,
m
13 april, tue
tue1300:00+1ese1159100 0.1 102219
03:00+1ese22575 0.0 102212
06:000ese2260100 0.0 102212
09:00+3ene0154100 0.0 1022156
12:00+6wnw1146100 0.0 1021756
15:00+7nw214495 0.0 10191293
18:00+6w3354100 0.3 1019263
21:00+3wsw1169100 0.1 102138
14 april, wed
wed1400:00+1ne117428 0.3 102213
03:00+1e11714 0.0 102010
06:000ene11732 0.0 102010
09:00+3nw016021 0.0 1021317
12:00+6nnw1151100 0.0 10191078
15:00+9nnw1242100 0.0 10161663
18:00+9nnw1143100 0.0 10161120
21:00+5ese2258100 0.5 101725
15 april, thu
thu1500:00+3sse11564 0.6 101711
03:00+2se115915 0.1 101710
06:00+2sse22629 0.2 101812
09:00+5ssw11530 0.2 1018399
12:00+8w23455 0.6 1016701
15:00+11wsw26306 0.1 10142883
18:00+10sw252428 0.1 10132475
21:00+7s1139100 0.0 101416
16 april, fri
fri1600:00+5se114194 0.0 101411
03:00+4ese1146100 0.0 101310
06:00+4s1149100 0.0 101310
09:00+6sw2242100 0.0 1014300
12:00+9wsw2236100 0.0 10131364
15:00+10wsw3334100 0.0 10122156
18:00+7s2255100 0.1 1015537
21:00+5s1164100 0.4 101621
17 april, sat
sat1700:00+4s2269100 0.7 101622
03:00+3sse2267100 0.0 101616
06:00+2s2165100 0.0 101512
09:00+5wsw1149100 0.0 1015469
12:00+7wnw2240100 0.0 10141419
15:00+10w3332100 0.0 10112058
18:00+9wsw3334100 0.0 10101618
21:00+6sw2258100 0.0 101250